Tracking 19576 objects as of 17-Feb-2019
HD Live streaming from Space Station
objects crossing your sky now

CXBN-2

Track CXBN-2 now!
10-day predictions
CXBN-2 is classified as:


NORAD ID: 42704
Int'l Code: 1998-067LM
Perigee: 252.5 km
Apogee: 262.4 km
Inclination: 51.6 °
Period: 89.5 minutes
Semi major axis: 6628 km
RCS: Unknown
Launch date: November 20, 1998
Source: United States (US)
Launch site: TYURATAM MISSILE AND SPACE COMPLEX (TTMTR)

Uplink (MHz):
Downlink (MHz): 437.075
Beacon (MHz):
Mode: 9600bps FSK
Call sign:
Status: Unknown

aabbcc
Your satellite tracking list
Your tracking list is empty




NASA's NSSDC Master Catalog

Two Line Element Set (TLE):
1 42704U 98067LM  19048.67968972  .00423898  99126-4  47511-3 0  9999
2 42704  51.6221 160.3924 0007517 348.6613  11.4230 16.08730414100783
Source of the keplerian elements: AFSPC